Location: Andiroba
(19.8650°S, 43.9258°W)
Time: 21:30:18
(UTC+00:00)

Atlas Centaur 2 - Visible Passes

Search period start: 19 September 2024 00:00
Search period end: 29 September 2024 00:00
Orbit: 457 x 1271 km, 30.4° (Epoch: 19 September)

Date Brightness Start Highest point End Pass type
(mag) Time Alt. Az. Time Alt. Az. Time Alt. Az.
19 Sep 2.5 21:01:56 10° WSW 21:08:20 66° NNW 21:13:19 10° NE visible
19 Sep 4.2 22:54:00 10° WNW 22:56:06 12° NW 22:57:04 12° NNW visible
20 Sep 4.5 22:45:14 10° NW 22:45:46 10° NW 22:46:16 10° NW visible
